Date String (YYYY-MM-DD hh:mm:ss) UTC,Instrument flags,Ambient pressure (hPa),Sample flow (lpm),Bypass flow (lpm),Sample temperature (°C),Ambient temperature (°C),ASC tube jacket temperature (°C),LED temperature (°C),Box temperature (°C),Sample RH (%),Span deviation,Mass concentration (μg/m³),Mass concentration (μg/m³),Mass concentration (μg/m³)
DateTimeUTC,F1_M11,P_M11,Q1_M11,Q2_M11,T1_M11,T2_M11,T3_M11,T4_M11,T5_M11,U1_M11,ZSPAN_M11,X2_M11,X0_M11,X1_M11
2021-09-01 11:00:00,,0821.7,5.00,0.00,30.0,29.0,00.0,39.0,31.7,15.2,0001.7,0026.43,0036.44,0024.74
2021-09-01 11:01:00,,0821.7,5.00,0.00,30.0,29.0,00.0,39.0,31.7,15.4,0001.7,0026.27,0036.44,0024.58
2021-09-01 11:02:00,,0821.7,4.99,0.00,30.0,29.1,00.0,39.0,31.8,15.5,0001.5,0026.31,0037.40,0024.57
2021-09-01 11:03:00,,0821.7,5.01,0.00,30.0,29.1,00.0,39.0,31.8,15.1,0001.6,0026.32,0037.61,0024.54
2021-09-01 11:04:00,,0821.7,4.98,0.00,30.0,29.0,00.0,39.0,31.8,15.0,0001.6,0026.09,0037.30,0024.35
2021-09-01 11:05:00,,0821.7,5.01,0.00,30.0,27.2,00.0,39.0,31.3,15.0,0001.7,0025.83,0037.25,0024.12
2021-09-01 11:06:00,,0821.6,5.00,0.00,29.8,26.3,00.0,39.0,31.1,15.0,0001.8,0025.60,0037.26,0023.90
2021-09-01 11:07:00,,0821.6,4.99,0.00,29.7,26.5,00.0,39.0,31.1,15.2,0001.8,0025.50,0037.71,0023.81
2021-09-01 11:08:00,,0821.6,5.01,0.00,29.6,26.9,00.0,38.9,31.1,15.3,0002.1,0025.53,0037.84,0023.83
2021-09-01 11:09:00,,0821.6,5.01,0.00,29.6,27.3,00.0,38.9,31.2,15.4,0002.1,0025.64,0039.70,0023.91
2021-09-01 11:10:00,,0821.7,4.98,0.00,29.6,27.6,00.0,38.9,31.2,15.8,0002.0,0025.73,0040.72,0024.04
2021-09-01 11:11:00,,0821.7,5.01,0.00,29.6,27.9,00.0,38.8,31.3,15.9,0001.9,0025.80,0041.21,0024.15
2021-09-01 11:12:00,,0821.7,4.99,0.00,29.7,28.1,00.0,38.8,31.4,16.0,0002.0,0025.97,0043.15,0024.34
2021-09-01 11:13:00,,0821.7,5.01,0.00,29.7,28.2,00.0,38.8,31.4,16.2,0002.2,0026.13,0043.01,0024.49
2021-09-01 11:14:00,,0821.7,4.99,0.00,29.7,28.3,00.0,38.8,31.4,16.4,0002.1,0026.44,0044.32,0024.78
2021-09-01 11:15:00,,0821.7,5.00,0.00,29.7,28.5,00.0,38.8,31.5,16.3,0002.0,0026.87,0045.54,0025.18
2021-09-01 11:16:00,,0821.8,4.99,0.00,29.8,28.5,00.0,38.8,31.5,16.4,0001.7,0027.55,0046.61,0025.72
2021-09-01 11:17:00,,0821.8,5.00,0.00,29.8,28.6,00.0,38.8,31.5,16.4,0001.6,0028.12,0048.27,0026.20
2021-09-01 11:18:00,,0821.8,5.00,0.00,29.8,28.7,00.0,38.9,31.6,16.5,0001.7,0028.77,0050.54,0026.77
2021-09-01 11:19:00,,0821.8,5.01,0.00,29.8,28.8,00.0,38.9,31.6,16.4,0001.4,0029.18,0051.35,0027.18
2021-09-01 11:20:00,,0821.8,4.99,0.00,29.8,28.8,00.0,38.9,31.7,16.3,0001.2,0029.54,0050.21,0027.57
2021-09-01 11:21:00,,0821.8,5.00,0.00,29.9,28.9,00.0,38.9,31.7,16.2,0001.4,0029.88,0051.76,0027.85
2021-09-01 11:22:00,,0821.8,5.01,0.00,29.9,28.9,00.0,38.9,31.7,16.2,0001.4,0030.14,0051.62,0028.03
2021-09-01 11:23:00,,0821.8,4.99,0.00,29.9,29.0,00.0,38.9,31.7,16.0,0001.1,0030.34,0050.73,0028.16
2021-09-01 11:24:00,,0821.9,5.00,0.00,29.9,29.0,00.0,38.9,31.8,16.1,0000.9,0030.34,0050.69,0028.17
2021-09-01 11:25:00,,0821.8,4.99,0.00,30.0,29.0,00.0,39.0,31.8,16.2,0000.7,0030.35,0049.78,0028.16
2021-09-01 11:26:00,,0821.8,5.00,0.00,30.0,29.1,00.0,39.0,31.8,16.0,0000.5,0030.41,0049.30,0028.20
2021-09-01 11:27:00,,0821.8,5.00,0.00,30.0,29.1,00.0,39.0,31.8,15.7,0000.8,0030.05,0048.87,0027.95
2021-09-01 11:28:00,,0821.7,4.99,0.00,30.0,29.1,00.0,39.0,31.8,16.2,0001.0,0029.91,0048.01,0027.81
2021-09-01 11:29:00,,0821.8,5.00,0.00,30.1,29.2,00.0,39.0,31.8,16.3,0000.8,0029.74,0046.47,0027.72
2021-09-01 11:30:00,,0821.8,4.99,0.00,30.1,29.1,00.0,39.1,31.8,15.5,0001.2,0029.48,0046.22,0027.51
2021-09-01 11:31:00,,0821.8,5.00,0.00,30.0,27.5,00.0,39.0,31.4,15.6,0001.3,0029.27,0046.19,0027.23
2021-09-01 11:32:00,,0821.8,5.00,0.00,29.9,26.3,00.0,39.0,31.1,15.9,0001.2,0029.07,0044.09,0027.06
2021-09-01 11:33:00,,0821.8,5.00,0.00,29.8,26.5,00.0,39.0,31.1,16.1,0001.2,0028.98,0043.37,0027.00
2021-09-01 11:34:00,,0821.9,5.00,0.00,29.7,26.9,00.0,39.0,31.2,16.0,0001.2,0028.86,0042.64,0026.91
2021-09-01 11:35:00,,0821.9,5.00,0.00,29.6,27.3,00.0,38.9,31.2,16.0,0001.3,0028.85,0042.63,0026.88
2021-09-01 11:36:00,,0821.8,5.01,0.00,29.6,27.6,00.0,38.9,31.3,16.0,0001.3,0028.68,0042.63,0026.73
2021-09-01 11:37:00,,0821.8,4.99,0.00,29.7,27.9,00.0,38.9,31.3,16.0,0001.5,0028.46,0042.13,0026.57
2021-09-01 11:38:00,,0821.8,4.99,0.00,29.7,28.1,00.0,38.9,31.4,16.0,0001.3,0028.49,0041.91,0026.58
2021-09-01 11:39:00,,0821.8,5.00,0.00,29.7,28.2,00.0,38.9,31.4,16.0,0001.1,0028.43,0042.79,0026.57
2021-09-01 11:40:00,,0821.8,5.00,0.00,29.7,28.4,00.0,38.9,31.5,16.1,0001.1,0028.35,0042.08,0026.49
2021-09-01 11:41:00,,0821.8,5.00,0.00,29.7,28.5,00.0,38.9,31.5,15.6,0000.8,0028.18,0040.91,0026.32
2021-09-01 11:42:00,,0821.8,4.99,0.00,29.8,28.6,00.0,38.9,31.5,15.4,0000.7,0027.90,0040.24,0026.10
2021-09-01 11:43:00,,0821.8,5.02,0.00,29.8,28.7,00.0,38.9,31.6,15.4,0000.7,0027.69,0039.61,0025.84
2021-09-01 11:44:00,,0821.8,5.00,0.00,29.8,28.7,00.0,38.9,31.6,15.5,0000.6,0027.35,0039.99,0025.55
2021-09-01 11:45:00,,0821.9,4.99,0.00,29.9,28.8,00.0,38.9,31.6,15.4,0000.7,0027.00,0040.41,0025.22
2021-09-01 11:46:00,,0822.0,5.01,0.00,29.9,28.8,00.0,38.9,31.7,15.3,0000.8,0026.55,0040.16,0024.86
2021-09-01 11:47:00,,0822.1,4.99,0.00,29.9,28.9,00.0,38.9,31.7,15.1,0001.1,0026.10,0038.96,0024.43
2021-09-01 11:48:00,,0821.9,4.98,0.00,29.9,29.0,00.0,38.9,31.7,15.1,0001.0,0025.77,0038.71,0024.08
2021-09-01 11:49:00,,0821.9,5.01,0.00,29.9,29.0,00.0,39.0,31.8,15.6,0001.2,0025.47,0038.48,0023.81
2021-09-01 11:50:00,,0821.9,5.00,0.00,30.0,29.1,00.0,39.0,31.8,15.6,0001.4,0025.34,0038.26,0023.64
2021-09-01 11:51:00,,0821.9,4.99,0.00,30.0,29.1,00.0,39.0,31.8,15.6,0001.4,0025.04,0038.68,0023.38
2021-09-01 11:52:00,,0822.1,5.01,0.00,30.0,29.1,00.0,39.0,31.8,15.9,0001.7,0025.09,0039.74,0023.33
2021-09-01 11:53:00,,0822.1,5.00,0.00,30.0,29.2,00.0,39.0,31.9,16.0,0001.3,0025.50,0040.26,0023.68
2021-09-01 11:54:00,,0822.1,5.00,0.00,30.1,29.1,00.0,39.1,31.9,15.8,0001.5,0025.69,0040.79,0023.95
2021-09-01 11:55:00,,0822.1,5.00,0.00,30.0,27.6,00.0,39.1,31.5,15.8,0001.5,0025.91,0040.35,0024.11
2021-09-01 11:56:00,,0822.0,5.00,0.00,29.9,26.4,00.0,39.0,31.1,15.9,0001.5,0025.89,0039.72,0024.14
2021-09-01 11:57:00,,0822.0,5.01,0.00,29.8,26.6,00.0,39.0,31.2,16.2,0001.4,0026.04,0039.66,0024.25
2021-09-01 11:58:00,,0822.0,4.99,0.00,29.7,26.9,00.0,39.0,31.2,16.4,0001.3,0026.46,0040.62,0024.64
2021-09-01 11:59:00,,0822.1,5.01,0.00,29.7,27.3,00.0,38.9,31.2,16.5,0001.4,0026.89,0041.73,0025.08
